Flag for Canada Weather past 2 weeks in Guelph, Ontario, Canada

Now
32 °F

Light snow. Overcast.


Feels Like: 21 °F
Forecast: N/A
Wind: 17 mph from West

Location: Waterloo Well

Current Time: Dec 17, 2014 at 4:40:59 PM

Latest Report: Dec 17, 2014 at 3:55 PM


Visibility: 9 mi

Pressure: 29.94 "Hg

Humidity: 87%

Dew point: 28 °F

Location of GuelphLocation

Historic Weather in Guelph — Graph

°F

Guelph temperature yesterday

Maximum temperature yesterday: 41 °F (at 11:59 PM)
Minimum temperature yesterday: 34 °F (at 6:00 AM)
Average temperature yesterday: 37 °F

Past Weeks' High & Low Weather Summary

 TemperatureHumidityPressure
High41 °F (Dec 16, 11:59 PM)100% (Dec 2, 7:52 PM)30.79 "Hg (Dec 2, 7:52 PM)
Low18 °F (Dec 4, 9:00 PM)40% (Dec 7, 1:00 PM)29.70 "Hg (Dec 16, 2:00 PM)
Average32 °F85%30.13 "Hg
* Reported Dec 2 3:00 PM — Dec 17 3:00 PM, Guelph, Weather by CustomWeather, © 2014

Note: Actual official high and low records may vary slightly from our data, if they occured in-between our weather recording intervals... More about our weather records

Advertising

Guelph weather history for previous 24 hours

 ConditionsComfort  
Time TempWeatherWind HumidityBarometerVisibility
3:00 PM
Dec 17
32 °FOvercast.18 mph87%29.93 "Hg8 mi
2:00 PM32 °FOvercast.20 mph93%29.91 "Hg9 mi
1:00 PM34 °FOvercast.25 mph87%29.89 "Hg9 mi
12:00 PM34 °FLight snow. Overcast.20 mph87%29.90 "Hg5 mi
11:00 AM34 °FLight snow. Mostly cloudy.16 mph87%29.90 "Hg7 mi
10:52 AM34 °FLight snow. Mostly cloudy.20 mph87%29.91 "Hg6 mi
10:00 AM32 °FLight snow. Mostly cloudy.17 mph93%29.90 "Hg5 mi
9:00 AM34 °FLight snow. Mostly cloudy.18 mph87%29.88 "Hg6 mi
8:56 AM32 °FLight snow. Overcast.18 mph93%29.88 "Hg6 mi
8:00 AM34 °FLight snow. Overcast.15 mph93%29.86 "Hg6 mi
7:00 AM36 °FOvercast.18 mph93%29.84 "Hg9 mi
6:02 AM37 °FOvercast.20 mph93%29.82 "Hg9 mi
5:04 AM39 °FFog.14 mph93%29.80 "Hg5 mi
4:00 AM39 °FLow clouds.12 mph93%29.79 "Hg9 mi
3:00 AM39 °FFog.12 mph100%29.78 "Hg4 mi
2:00 AM41 °FLow clouds.10 mph93%29.76 "Hg8 mi
1:00 AM41 °FLight rain. Fog.13 mph93%29.76 "Hg3 mi
12:54 AM41 °FLight rain. Fog.10 mph93%29.76 "Hg3 mi
12:00 AM41 °FLight rain. Fog.8 mph93%29.76 "Hg6 mi
11:59 PM
Dec 16
41 °FLight rain. Fog.9 mph93%29.76 "Hg6 mi
11:00 PM39 °FLight rain. Fog.7 mph100%29.76 "Hg4 mi
10:00 PM39 °FLight rain. Fog.6 mph93%29.75 "Hg2 mi
9:58 PM39 °FLight rain. Fog.6 mph93%29.75 "Hg2 mi
9:00 PM37 °FLight rain. Fog.No wind100%29.75 "Hg1 mi
8:04 PM37 °FFog.2 mph100%29.74 "Hg1 mi
8:00 PM37 °FLight rain. Fog.2 mph100%29.74 "Hg1 mi
7:00 PM37 °FLight rain. Fog.No wind93%29.74 "Hg1 mi
6:00 PM37 °FLight rain. Fog.3 mph100%29.73 "Hg2 mi
5:58 PM37 °FLight rain. Fog.3 mph100%29.73 "Hg2 mi
5:00 PM37 °FLight rain. Fog.5 mph100%29.72 "Hg1 mi
4:00 PM37 °FLight rain. Fog.8 mph100%29.70 "Hg2 mi
Weather by CustomWeather, © 2014

See weather overviewHow to use our weather pages